CW0736 Weather Reports


Display with metric or nautical units.
time (UTC)temp
F
wind
direction
speed
MPH
gust
MPH
rain 1hr
in
rain 24hr
in
rain mn
in
humidity
%
barometer
mb
20260508030029 43 346 0.0 1.0 0.03 0.05 0.05 88 1013.0
20260508024529 43 346 0.0 2.0 0.03 0.05 0.05 88 1013.1
20260508023031 43 355 0.0 1.0 0.01 0.02 0.02 86 1013.1
20260508021545 43 355 0.0 0.0 0.01 0.02 0.02 85 1012.9
20260508020108 43 355 0.0 1.0 0.01 0.02 0.02 84 1012.8
20260508020002 43 355 0.0 1.0 0.01 0.02 0.02 84 1012.9
20260508014606 44 350 0.0 2.0 0.01 0.02 0.02 82 1012.7
20260508013026 45 281 0.0 2.0 0.00 0.01 0.01 80 1012.7
20260508011529 46 281 0.0 1.0 0.00 0.01 0.01 77 1012.6
20260508010034 46 281 0.0 2.0 0.00 0.01 0.01 73 1012.5
20260508004519 46 5 0.0 1.0 0.00 0.01 0.01 70 1012.2
20260508003011 46 5 0.0 1.0 0.00 0.01 0.01 70 1011.8
20260508001506 47 5 0.0 2.0 0.00 0.01 0.01 69 1011.9
20260508000032 47 348 0.0 1.0 0.00 0.03 0.01 67 1011.7
20260507234533 48 5 0.0 2.0 0.00 0.03 0.01 64 1011.6
20260507233030 48 15 0.0 3.0 0.00 0.03 0.01 62 1011.7
20260507231520 48 15 1.0 4.0 0.00 0.03 0.01 60 1011.5
20260507230048 49 46 0.0 3.0 0.00 0.14 0.01 61 1011.5
20260507224548 49 29 1.0 2.0 0.00 0.14 0.01 59 1011.6
20260507223036 49 11 1.0 5.0 0.00 0.14 0.01 58 1011.5
20260507221538 49 12 2.0 8.0 0.00 0.14 0.01 58 1011.7
20260507220039 49 350 0.0 8.0 0.00 0.15 0.01 59 1011.7
20260507214503 50 350 0.0 2.0 0.00 0.15 0.01 58 1011.7
20260507213100 50 13 1.0 5.0 0.00 0.15 0.01 57 1011.7
20260507213002 50 15 2.0 5.0 0.00 0.15 0.01 57 1011.6
20260507211515 50 23 1.0 5.0 0.00 0.15 0.01 58 1011.6
20260507210036 50 20 1.0 4.0 0.00 0.15 0.01 58 1011.6
20260507204530 50 28 0.0 2.0 0.00 0.15 0.01 62 1011.5
20260507203047 51 29 2.0 4.0 0.00 0.15 0.01 60 1011.6
20260507201506 51 11 1.0 8.0 0.00 0.15 0.01 62 1011.6
20260507200056 51 19 0.0 8.0 0.00 0.15 0.01 60 1011.7
20260507194553 51 11 1.0 5.0 0.00 0.15 0.01 60 1011.8
20260507193051 51 44 0.0 2.0 0.00 0.15 0.01 64 1012.0
20260507191551 51 327 0.0 2.0 0.00 0.15 0.01 64 1012.1
20260507190044 51 44 0.0 3.0 0.00 0.15 0.01 65 1012.1
20260507184514 51 9 1.0 4.0 0.00 0.15 0.01 63 1012.4
20260507183004 52 5 3.0 10.0 0.00 0.15 0.01 60 1012.3
20260507181553 53 5 3.0 6.0 0.00 0.15 0.01 56 1012.3
20260507180001 53 306 0.0 5.0 0.00 0.15 0.01 61 1012.3
20260507174508 52 254 1.0 3.0 0.00 0.15 0.01 59 1012.4
20260507173057 53 98 0.0 7.0 0.00 0.15 0.01 60 1012.5
20260507171519 53 360 1.0 4.0 0.00 0.15 0.01 55 1012.6
20260507170045 53 13 1.0 4.0 0.00 0.15 0.01 57 1012.8
20260507164547 52 343 1.0 3.0 0.00 0.15 0.01 62 1012.9
20260507163036 52 24 2.0 8.0 0.00 0.15 0.01 61 1013.2
20260507161547 52 360 0.0 4.0 0.00 0.15 0.01 64 1013.2
20260507160009 51 272 1.0 4.0 0.00 0.15 0.01 63 1013.3
20260507154515 51 246 1.0 4.0 0.00 0.15 0.01 66 1013.3
20260507153013 50 252 1.0 4.0 0.00 0.15 0.01 66 1013.5
20260507151559 49 264 2.0 6.0 0.00 0.15 0.01 70 1013.7
20260507150053 49 248 1.0 2.0 0.00 0.16 0.01 71 1013.7
20260507144557 48 165 0.0 3.0 0.00 0.16 0.01 69 1013.7
20260507143045 48 180 1.0 3.0 0.00 0.16 0.01 69 1013.8
20260507141558 46 32 0.0 2.0 0.00 0.16 0.01 75 1013.9
20260507140014 45 83 0.0 2.0 0.00 0.18 0.01 81 1014.0
20260507134559 43 248 0.0 3.0 0.00 0.18 0.01 86 1014.2
20260507133007 41 274 0.0 2.0 0.00 0.18 0.01 91 1014.4
20260507131534 40 285 0.0 2.0 0.00 0.18 0.01 93 1014.6
20260507130030 39 22 0.0 1.0 0.00 0.23 0.01 93 1014.6
20260507124508 39 22 0.0 0.0 0.00 0.23 0.01 94 1014.5
20260507123011 39 22 0.0 2.0 0.00 0.23 0.01 95 1014.6
20260507121537 39 22 0.0 1.0 0.00 0.23 0.01 96 1014.5
20260507120030 39 22 0.0 4.0 0.00 0.28 0.01 95 1014.6
20260507114509 39 310 0.0 2.0 0.00 0.28 0.01 95 1014.6
20260507113012 39 255 0.0 0.0 0.00 0.28 0.01 96 1014.5
20260507111531 38 255 0.0 0.0 0.00 0.28 0.01 95 1014.3
20260507110045 39 255 0.0 0.0 0.00 0.34 0.01 95 1014.2
20260507104559 39 255 0.0 0.0 0.00 0.34 0.01 96 1014.1
20260507103056 38 255 0.0 0.0 0.00 0.34 0.01 96 1014.3
20260507101550 38 255 0.0 0.0 0.01 0.34 0.01 96 1014.0
20260507100043 37 255 0.0 0.0 0.01 0.42 0.01 95 1013.9
20260507094525 37 255 0.0 0.0 0.01 0.42 0.01 95 1013.9
20260507093043 37 255 0.0 0.0 0.01 0.42 0.01 95 1013.8
20260507091506 37 255 0.0 0.0 0.00 0.41 0.00 95 1014.0
20260507090106 37 255 0.0 0.0 0.00 0.47 0.00 95 1013.7
20260507090006 37 255 0.0 0.0 0.00 0.47 0.00 95 1013.6
20260507084558 37 255 0.0 0.0 0.00 0.47 0.00 95 1013.6
20260507083058 36 255 0.0 0.0 0.00 0.47 0.00 95 1013.3
20260507081556 36 255 0.0 0.0 0.00 0.47 0.00 95 1014.0
20260507080038 36 255 0.0 0.0 0.00 0.56 0.00 94 1014.0
20260507074537 37 255 0.0 0.0 0.00 0.56 0.00 94 1013.7
20260507073049 37 255 0.0 0.0 0.00 0.56 0.00 95 1013.6
20260507071536 38 255 0.0 0.0 0.00 0.56 0.00 94 1014.0
20260507070028 38 255 0.0 0.0 0.00 0.69 0.00 94 1014.1
20260507064513 39 255 0.0 0.0 0.00 0.69 0.00 94 1014.3
20260507063102 39 255 0.0 0.0 0.00 0.69 0.00 94 1014.1
20260507061550 39 255 0.0 0.0 0.00 0.69 0.00 94 1014.1
20260507060005 39 255 0.0 0.0 0.00 0.84 0.00 94 1013.9
20260507054501 40 255 0.0 0.0 0.00 0.84 0.00 94 1014.0
20260507053050 40 255 0.0 0.0 0.00 0.84 0.00 95 1014.3
20260507051542 41 255 0.0 0.0 0.00 0.84 0.00 95 1014.4
20260507050056 41 255 0.0 0.0 0.00 0.94 0.00 95 1014.5
20260507044556 41 255 0.0 1.0 0.00 0.94 0.00 95 1014.8
20260507043052 41 255 0.0 0.0 0.00 0.94 0.00 95 1014.6
20260507041547 41 255 0.0 0.0 0.00 0.94 0.00 94 1014.4
20260507040107 41 255 0.0 0.0 0.00 1.04 0.00 95 1014.3
20260507034537 41 255 0.0 0.0 0.00 1.04 0.94 94 1014.1
20260507033024 41 255 0.0 0.0 0.00 1.04 0.94 94 1014.2
20260507031546 42 255 0.0 1.0 0.00 1.04 0.94 94 1014.2